TimeEDT,TemperatureF,Dew PointF,Humidity,Sea Level PressureIn,VisibilityMPH,Wind Direction,Wind SpeedMPH,Gust SpeedMPH,PrecipitationIn,Events,Conditions,WindDirDegrees,DateUTC
12:15 AM,26.6,19.4,74,29.86,4.0,West,19.6,28.8,0.00,Snow,Light Snow,270,2013-03-20 04:15:00
12:53 AM,27.0,16.0,63,29.89,10.0,West,16.1,27.6,0.00,,Overcast,260,2013-03-20 04:53:00
1:43 AM,28.4,17.6,64,29.86,9.0,West,15.0,27.6,0.00,Snow,Light Snow,270,2013-03-20 05:43:00
1:53 AM,27.0,19.9,75,29.89,2.5,West,19.6,26.5,0.00,Snow,Light Snow,260,2013-03-20 05:53:00
2:04 AM,26.6,17.6,69,29.86,3.0,West,17.3,27.6,0.00,Snow,Light Snow,270,2013-03-20 06:04:00
2:53 AM,28.0,16.0,61,29.89,9.0,West,18.4,27.6,0.00,Snow,Light Snow,280,2013-03-20 06:53:00
3:53 AM,28.0,17.1,63,29.88,10.0,West,16.1,31.1,0.00,,Overcast,260,2013-03-20 07:53:00
4:53 AM,28.0,18.0,66,29.88,10.0,West,11.5,27.6,N/A,,Overcast,270,2013-03-20 08:53:00
5:36 AM,28.4,19.4,69,29.85,10.0,West,13.8,24.2,N/A,,Overcast,270,2013-03-20 09:36:00
5:53 AM,28.0,18.0,66,29.88,10.0,West,15.0,27.6,N/A,,Overcast,260,2013-03-20 09:53:00
6:18 AM,28.4,17.6,64,29.86,10.0,West,15.0,25.3,N/A,,Overcast,260,2013-03-20 10:18:00
6:53 AM,28.0,18.0,66,29.88,10.0,West,17.3,25.3,N/A,,Overcast,270,2013-03-20 10:53:00
7:53 AM,28.0,18.0,66,29.88,10.0,WSW,13.8,23.0,N/A,,Overcast,250,2013-03-20 11:53:00
8:53 AM,28.0,18.0,66,29.88,10.0,WSW,11.5,19.6,N/A,,Overcast,250,2013-03-20 12:53:00
9:53 AM,28.0,17.1,63,29.89,10.0,WSW,13.8,23.0,0.00,,Overcast,250,2013-03-20 13:53:00
10:27 AM,26.6,17.6,69,29.86,2.5,WSW,15.0,23.0,0.00,Snow,Light Snow,250,2013-03-20 14:27:00
10:30 AM,26.6,19.4,74,29.86,1.5,WSW,13.8,23.0,0.00,Snow,Light Snow,250,2013-03-20 14:30:00
10:33 AM,26.6,19.4,74,29.86,0.8,WSW,15.0,23.0,0.00,Snow,Light Snow,250,2013-03-20 14:33:00
10:47 AM,26.6,21.2,80,29.86,1.2,WSW,13.8,20.7,0.00,Snow,Light Snow,250,2013-03-20 14:47:00
10:51 AM,26.6,21.2,80,29.86,3.0,West,11.5,20.7,0.00,Snow,Light Snow,260,2013-03-20 14:51:00
10:53 AM,27.0,21.0,78,29.88,2.5,WSW,15.0,23.0,0.00,Snow,Light Snow,240,2013-03-20 14:53:00
10:56 AM,26.6,21.2,80,29.86,1.0,WSW,17.3,25.3,0.00,Snow,Light Snow,250,2013-03-20 14:56:00
11:09 AM,26.6,21.2,80,29.86,1.2,WSW,13.8,21.9,0.00,Snow,Light Snow,250,2013-03-20 15:09:00
11:11 AM,26.6,21.2,80,29.86,0.8,WSW,12.7,21.9,0.00,Snow,Light Snow,250,2013-03-20 15:11:00
11:20 AM,26.6,21.2,80,29.86,0.8,WSW,15.0,19.6,0.00,Snow,Light Snow,240,2013-03-20 15:20:00
11:31 AM,26.6,23.0,86,29.85,1.0,West,12.7,19.6,0.00,Snow,Light Snow,260,2013-03-20 15:31:00
11:41 AM,28.4,21.2,74,29.85,8.0,WSW,15.0,21.9,0.00,,Overcast,250,2013-03-20 15:41:00
11:53 AM,28.0,19.9,72,29.88,10.0,WSW,12.7,25.3,0.00,,Overcast,250,2013-03-20 15:53:00
12:22 PM,28.4,21.2,74,29.86,2.5,WSW,11.5,24.2,0.00,Snow,Light Snow,250,2013-03-20 16:22:00
12:33 PM,28.4,19.4,69,29.86,3.0,WSW,15.0,26.5,0.00,Snow,Light Snow,250,2013-03-20 16:33:00
12:36 PM,28.4,21.2,74,29.85,1.8,WSW,15.0,25.3,0.00,Snow,Light Snow,240,2013-03-20 16:36:00
12:46 PM,28.4,19.4,69,29.85,3.0,West,16.1,29.9,0.00,Snow,Light Snow,260,2013-03-20 16:46:00
12:53 PM,28.0,19.0,69,29.88,7.0,West,13.8,24.2,0.00,,Overcast,260,2013-03-20 16:53:00
1:53 PM,28.9,19.0,67,29.88,9.0,West,11.5,26.5,0.00,,Overcast,270,2013-03-20 17:53:00
2:53 PM,30.0,17.1,59,29.86,10.0,West,17.3,28.8,N/A,,Overcast,260,2013-03-20 18:53:00
3:53 PM,28.9,16.0,58,29.86,10.0,WSW,17.3,27.6,N/A,,Overcast,250,2013-03-20 19:53:00
4:53 PM,28.9,14.0,54,29.87,10.0,West,15.0,24.2,N/A,,Overcast,260,2013-03-20 20:53:00
5:53 PM,28.9,14.0,54,29.88,10.0,WSW,13.8,23.0,N/A,,Mostly Cloudy,250,2013-03-20 21:53:00
6:53 PM,28.0,12.9,53,29.89,10.0,West,12.7,19.6,N/A,,Mostly Cloudy,260,2013-03-20 22:53:00
7:53 PM,27.0,17.1,66,29.88,10.0,WSW,13.8,18.4,N/A,,Mostly Cloudy,240,2013-03-20 23:53:00
8:53 PM,26.1,16.0,66,29.88,10.0,WSW,8.1,-,N/A,,Mostly Cloudy,240,2013-03-21 00:53:00
9:53 PM,26.1,21.0,81,29.87,10.0,West,5.8,-,N/A,,Overcast,280,2013-03-21 01:53:00
10:10 PM,26.6,17.6,69,29.84,9.0,West,12.7,21.9,N/A,,Overcast,280,2013-03-21 02:10:00
10:15 PM,26.6,21.2,80,29.84,2.5,Variable,6.9,21.9,0.00,Snow,Light Snow,0,2013-03-21 02:15:00
10:23 PM,26.6,21.2,80,29.84,3.0,WNW,6.9,-,0.00,Snow,Light Snow,300,2013-03-21 02:23:00
10:45 PM,24.8,21.2,86,29.84,10.0,NW,5.8,-,0.00,,Overcast,310,2013-03-21 02:45:00
10:53 PM,26.1,19.9,78,29.88,2.5,WNW,9.2,-,0.00,Snow,Light Snow,300,2013-03-21 02:53:00
11:00 PM,24.8,19.4,80,29.84,1.0,WNW,11.5,-,0.00,Snow,Light Snow,290,2013-03-21 03:00:00
11:11 PM,24.8,21.2,86,29.84,0.8,WNW,6.9,-,0.00,Snow,Light Snow,290,2013-03-21 03:11:00
11:23 PM,24.8,21.2,86,29.84,1.0,WNW,5.8,-,0.00,Snow,Light Snow,300,2013-03-21 03:23:00
11:27 PM,24.8,21.2,86,29.84,2.0,WNW,8.1,-,0.00,Snow,Light Snow,300,2013-03-21 03:27:00
11:36 PM,24.8,21.2,86,29.84,6.0,NW,4.6,-,0.00,Snow,Light Snow,310,2013-03-21 03:36:00
11:45 PM,24.8,19.4,80,29.84,8.0,NW,5.8,-,0.00,,Overcast,310,2013-03-21 03:45:00
11:53 PM,24.1,19.0,81,29.87,2.5,WNW,6.9,-,0.00,Snow,Light Snow,300,2013-03-21 03:53:00